Time,TemperatureF,DewpointF,PressureIn,WindDirection,WindDirectionDegrees,WindSpeedMPH,WindSpeedGustMPH,Humidity,HourlyPrecipIn,Conditions,Clouds,dailyrainin,SoftwareType,DateUTC
2014-09-19 00:13:00,54.0,51.0,29.95,SE,142,5.0,-999.0,88,-99.99,,,-99.99,,2014-09-19 05:13:00,
2014-09-19 00:22:00,54.0,51.0,29.95,SSE,147,5.0,-999.0,89,-99.99,,,-99.99,,2014-09-19 05:22:00,
2014-09-19 00:43:00,54.0,51.0,29.95,SSE,151,6.0,-999.0,90,-99.99,,,-99.99,,2014-09-19 05:43:00,
2014-09-19 00:53:00,55.0,52.0,29.95,SSE,163,7.0,-999.0,89,-99.99,,,-99.99,,2014-09-19 05:53:00,
2014-09-19 01:22:00,54.0,51.0,29.95,North,360,7.0,-999.0,90,-99.99,,,-99.99,,2014-09-19 06:22:00,
2014-09-19 01:42:00,54.0,51.0,29.95,SSE,167,6.0,-999.0,90,-99.99,,,-99.99,,2014-09-19 06:42:00,
2014-09-19 01:53:00,54.0,51.0,29.95,SSE,151,5.0,-999.0,91,-99.99,,,-99.99,,2014-09-19 06:53:00,
2014-09-19 02:12:00,55.0,52.0,29.93,SSE,150,8.0,-999.0,91,-99.99,,,-99.99,,2014-09-19 07:12:00,
2014-09-19 02:22:00,55.0,52.0,29.93,South,170,9.0,-999.0,89,-99.99,,,-99.99,,2014-09-19 07:22:00,
2014-09-19 03:23:00,56.0,52.0,29.93,North,360,8.0,-999.0,87,-99.99,,,-99.99,,2014-09-19 08:23:00,
2014-09-19 03:42:00,56.0,52.0,29.92,SSE,167,9.0,-999.0,86,-99.99,,,-99.99,,2014-09-19 08:42:00,
2014-09-19 03:52:00,56.0,52.0,29.91,SSE,165,10.0,-999.0,86,-99.99,,,-99.99,,2014-09-19 08:52:00,
2014-09-19 04:23:00,56.0,52.0,29.90,South,176,10.0,-999.0,85,-99.99,,,-99.99,,2014-09-19 09:23:00,
2014-09-19 04:54:00,56.0,51.0,29.89,SSE,159,10.0,-999.0,84,-99.99,,,-99.99,,2014-09-19 09:54:00,
2014-09-19 05:13:00,56.0,51.0,29.89,South,179,10.0,-999.0,83,-99.99,,,-99.99,,2014-09-19 10:13:00,
2014-09-19 05:23:00,56.0,51.0,29.89,South,182,11.0,-999.0,83,-99.99,,,-99.99,,2014-09-19 10:23:00,
2014-09-19 05:43:00,56.0,51.0,29.90,South,170,10.0,-999.0,82,-99.99,,,-99.99,,2014-09-19 10:43:00,
2014-09-19 05:54:00,55.0,50.0,29.90,South,177,9.0,-999.0,83,-99.99,,,-99.99,,2014-09-19 10:54:00,
2014-09-19 06:23:00,55.0,50.0,29.91,South,183,8.0,-999.0,84,-99.99,,,-99.99,,2014-09-19 11:23:00,
2014-09-19 06:52:00,56.0,49.0,29.90,SE,146,11.0,-999.0,77,-99.99,,,-99.99,,2014-09-19 11:52:00,
2014-09-19 07:12:00,56.0,49.0,29.90,SSE,157,9.0,-999.0,78,-99.99,,,-99.99,,2014-09-19 12:12:00,
2014-09-19 07:22:00,56.0,49.0,29.90,SSE,149,9.0,-999.0,77,-99.99,,,-99.99,,2014-09-19 12:22:00,
2014-09-19 07:42:00,55.0,49.0,29.89,South,178,10.0,-999.0,79,-99.99,,,-99.99,,2014-09-19 12:42:00,
2014-09-19 07:52:00,55.0,49.0,29.88,SSE,165,11.0,-999.0,80,-99.99,,,-99.99,,2014-09-19 12:52:00,
2014-09-19 08:22:00,56.0,50.0,29.86,SSE,167,15.0,-999.0,80,-99.99,,,-99.99,,2014-09-19 13:22:00,
2014-09-19 08:53:00,59.0,52.0,29.86,South,171,13.0,-999.0,78,-99.99,,,-99.99,,2014-09-19 13:53:00,
2014-09-19 09:23:00,61.0,53.0,29.86,South,180,11.0,-999.0,76,-99.99,,,-99.99,,2014-09-19 14:23:00,
2014-09-19 09:31:00,62.0,54.0,29.84,South,184,12.0,-999.0,75,-99.99,,,-99.99,,2014-09-19 14:31:00,
2014-09-19 09:42:00,62.0,54.0,29.84,South,191,13.0,-999.0,76,-99.99,,,-99.99,,2014-09-19 14:42:00,
2014-09-19 09:52:00,62.0,54.0,29.84,South,184,12.0,-999.0,75,-99.99,,,-99.99,,2014-09-19 14:52:00,
2014-09-19 10:02:00,62.0,54.0,29.84,South,184,12.0,-999.0,75,-99.99,,,-99.99,,2014-09-19 15:02:00,
2014-09-19 10:11:00,62.0,54.0,29.84,South,184,12.0,-999.0,75,-99.99,,,-99.99,,2014-09-19 15:11:00,
2014-09-19 10:21:00,62.0,54.0,29.84,South,184,12.0,-999.0,75,-99.99,,,-99.99,,2014-09-19 15:21:00,
2014-09-19 11:54:00,68.0,59.0,29.76,South,185,17.0,-999.0,72,-99.99,,,-99.99,,2014-09-19 16:54:00,
2014-09-19 12:23:00,70.0,59.0,29.72,South,189,21.0,-999.0,67,-99.99,,,-99.99,,2014-09-19 17:23:00,
2014-09-19 12:43:00,71.0,59.0,29.72,SSW,197,21.0,-999.0,66,-99.99,,,-99.99,,2014-09-19 17:43:00,
2014-09-19 12:53:00,72.0,60.0,29.70,South,178,22.0,-999.0,65,-99.99,,,-99.99,,2014-09-19 17:53:00,
2014-09-19 13:12:00,73.0,60.0,29.70,South,188,21.0,-999.0,63,-99.99,,,-99.99,,2014-09-19 18:12:00,
2014-09-19 13:22:00,73.0,60.0,29.69,SW,219,19.0,-999.0,63,-99.99,,,-99.99,,2014-09-19 18:22:00,
2014-09-19 13:42:00,74.0,60.0,29.69,South,179,19.0,-999.0,61,-99.99,,,-99.99,,2014-09-19 18:42:00,
2014-09-19 13:52:00,74.0,60.0,29.68,SSW,198,21.0,-999.0,61,-99.99,,,-99.99,,2014-09-19 18:52:00,
2014-09-19 14:22:00,75.0,61.0,29.65,South,177,20.0,-999.0,62,-99.99,,,-99.99,,2014-09-19 19:22:00,
2014-09-19 14:53:00,77.0,62.0,29.64,South,186,18.0,-999.0,59,-99.99,,,-99.99,,2014-09-19 19:53:00,
2014-09-19 15:22:00,79.0,62.0,29.61,South,180,16.0,-999.0,57,-99.99,,,-99.99,,2014-09-19 20:22:00,
2014-09-19 15:42:00,79.0,62.0,29.62,SSW,192,14.0,-999.0,57,-99.99,,,-99.99,,2014-09-19 20:42:00,
2014-09-19 15:52:00,79.0,62.0,29.62,SSW,208,14.0,-999.0,56,-99.99,,,-99.99,,2014-09-19 20:52:00,
2014-09-19 16:12:00,80.0,63.0,29.62,South,189,15.0,-999.0,57,-99.99,,,-99.99,,2014-09-19 21:12:00,
2014-09-19 16:22:00,81.0,63.0,29.62,SW,215,14.0,-999.0,55,-99.99,,,-99.99,,2014-09-19 21:22:00,